Starlink 32265

operational
NORAD ID: 60415 Int'l Des: 2024-141 Owner: SPXS Country: US Constellation: starlink
LEOCIRCULAR

关于 Starlink 32265

正在加载描述...

实时位置

正在加载3D地球...

即将过境

高度历史

Altitude vs Time

uPlot chart will show altitude changes over time

两行轨道根数

1 60415U 24141T 25304.91838198 -.00001095 00000-0 -24872-4 0 9993
2 60415 53.1579 120.8242 0001168 87.4085 272.7050 15.30179719 69860
Epoch: Oct 31, 2025 • Age: 37 hours

当前状态

高度 480.9 km
速度 7.63 km/s
星下点 -19.26°S, 102.04°E
发射日期 Aug 10, 2024
运行时间 1.2 years
类型 internet

技术详情

分类 Payload
质量 730.00 kg
干质量 700.00 kg
总质量 730.00 kg
长度 0.30 m
直径 4.10 m
跨度 29.00 m
形状 Box + pan
制造商 SPXS
平台类型 Starlink V2M
阶段状态 In Orbit
所有者/国家 SPXS/US

大型星座

Loading constellations...